Dewpoint
51 52 51 50 51 51 52 53 52 52 51 50 53 55 53 53 52 55 58 58 55 56 56 55 55 53 51 49 48 49 48 44
48 51 50 49 51 51 51 52 54 53 51 52 53 53 54 54 52 53 59 59 59 58 56 56 56 54 51 50 50 47 46 43
48 47 48 48 50 50 51 52 52 53 53 53 53 51 52 53 52 53 58 60 60 59 59 58 57 55 52 50 49 47 46 46
49 48 48 48 48 49 51 52 52 53 53 51 51 50 50 50 52 53 59 60 60 59 60 59 58 56 53 51 50 48 46 47
49 49 49 50 50 51 51 51 51 52 51 49 48 48 48 49 51 53 58 60 59 58 58 57 57 56 55 54 51 49 48 44
49 49 50 50 51 51 50 50 50 51 51 52 52 50 49 48 50 52 59 59 59 58 58 58 57 58 57 53 51 50 49 47
48 49 50 50 51 52 52 52 52 52 52 53 54 53 52 50 51 53 58 59 58 58 58 57 57 56 53 52 53 51 52 47
46 48 49 50 50 51 53 53 52 53 53 55 55 54 56 52 52 55 57 58 58 57 57 56 56 54 53 53 52 49 47 45
42 45 47 48 50 52 52 52 52 53 53 54 56 56 56 57 57 56 57 58 58 58 58 55 53 53 51 49 47 48 47 44
42 42 47 48 50 52 54 53 53 52 52 54 56 57 58 58 58 58 58 58 58 57 55 53 51 49 49 49 49 44 40 40
34 41 44 49 51 53 54 54 53 54 55 56 57 58 59 58 60 60 59 57 56 55 54 51 49 49 48 46 43 43 41 42
35 37 43 46 50 52 56 56 56 56 56 58 58 59 60 60 59 59 58 56 54 53 51 48 48 47 45 44 42 41 39 39
38 38 39 45 47 51 55 57 57 57 57 58 59 60 60 59 58 57 55 53 51 49 48 47 46 44 44 42 40 39 39 39
39 42 41 42 46 49 55 56 56 58 58 59 58 56 55 53 52 50 49 48 48 47 47 44 44 43 42 41 39 39 39 39
40 44 45 45 47 49 52 56 56 56 56 55 53 51 50 49 48 47 47 47 45 44 43 43 43 42 41 40 39 39 41 41
34 41 46 49 51 56 55 54 53 53 52 50 49 48 48 47 46 45 45 44 43 42 42 42 41 41 40 39 41 42 40 39
34 40 46 49 55 54 53 51 50 49 48 48 48 48 47 46 45 43 42 42 42 42 41 40 40 40 41 41 40 39 39 39
34 40 48 52 54 52 51 50 49 47 46 46 46 46 45 45 43 43 42 41 41 40 40 40 40 40 39 39 38 39 35 31
40 49 52 52 52 51 49 48 47 46 45 44 43 43 41 41 40 40 41 41 41 41 41 40 40 38 37 34 30 29 30 30
Wind_Speed
23 25 22 25 22 21 21 20 22 22 19 18 17 15 18 15 14 11 14 10 12 10 10 12 14 13 9 7 9 8 3 9
16 30 27 23 24 23 24 24 24 22 22 21 18 17 14 13 12 16 16 15 14 14 13 13 12 13 11 13 10 8 10 4
19 21 25 28 28 25 25 24 25 24 21 21 19 17 15 15 14 14 16 15 15 16 17 12 11 8 12 14 12 10 10 11
25 24 22 29 32 29 27 27 28 26 24 19 16 16 16 16 15 14 14 13 9 12 16 9 5 11 11 12 14 15 15 12
28 29 27 26 30 30 29 30 29 27 24 20 23 19 18 17 17 17 17 17 14 10 9 12 12 14 14 17 15 15 14 15
27 29 30 28 27 29 29 29 30 26 25 22 18 17 17 15 15 15 16 14 13 12 12 12 14 13 14 15 14 14 11 11
29 28 27 29 28 27 29 27 27 25 27 26 21 18 16 16 16 18 15 15 15 15 14 13 13 12 13 9 6 6 5 4
31 33 32 31 32 32 30 30 28 28 24 22 23 19 15 19 14 15 15 14 15 16 16 15 11 11 10 7 6 7 7 6
30 31 32 30 31 33 31 31 30 27 24 19 16 21 21 17 17 19 16 16 16 16 17 13 12 12 12 13 15 12 11 8
28 29 31 31 30 30 31 28 28 27 27 23 22 21 21 19 20 19 15 10 12 15 13 12 10 11 13 14 11 12 14 10
14 25 28 30 31 30 29 29 27 26 23 24 25 23 21 14 15 12 13 15 14 12 13 12 13 13 12 11 12 13 13 9
2 5 18 26 27 27 30 28 27 22 22 18 19 19 18 9 10 11 11 12 14 13 12 14 14 14 15 15 11 12 12 10
7 5 6 18 23 26 26 24 22 21 18 21 17 15 10 9 12 13 14 13 11 13 13 13 12 14 14 15 13 11 11 10
9 7 5 4 5 11 17 17 17 7 10 17 18 14 17 16 14 13 13 13 12 11 12 14 15 14 14 12 11 12 11 9
12 11 10 8 7 8 12 13 21 18 20 19 18 17 18 16 15 13 13 13 14 14 13 13 11 14 13 13 10 8 7 8
13 16 13 14 14 19 17 17 17 17 19 18 17 19 17 17 16 15 15 14 14 15 15 14 13 12 9 9 6 6 4 8
10 18 21 19 19 17 15 14 14 15 17 19 18 18 16 17 17 16 16 15 14 14 12 12 12 8 8 7 6 3 7 13
6 7 19 19 21 19 17 15 15 16 18 17 17 18 19 18 17 18 17 15 14 13 12 10 9 8 12 11 7 6 9 10
9 10 15 19 19 22 21 17 16 17 18 18 18 18 18 17 16 15 15 13 13 12 10 8 8 4 10 7 1 6 7 11
Wind_Direction
155 155 160 163 159 160 159 162 164 163 175 182 203 221 205 212 208 197 174 177 208 204 208 199 190 188 169 187 211 227 225 203
166 157 165 153 156 165 171 170 174 174 183 197 215 207 194 213 214 199 186 195 210 203 218 218 188 188 177 204 215 198 232 217
168 153 154 153 162 177 175 181 181 188 189 198 207 189 196 205 217 210 180 189 214 220 220 223 201 198 202 187 202 204 215 204
167 169 173 164 171 180 180 184 192 201 214 192 197 200 196 203 208 214 190 184 198 202 195 179 191 194 200 192 199 210 212 210
171 178 183 183 178 180 184 188 200 206 218 198 199 198 204 197 201 201 186 178 195 209 209 191 177 188 212 209 199 220 218 205
179 182 185 189 184 182 188 196 202 202 209 223 207 206 201 202 204 200 158 167 183 208 219 213 198 192 216 203 193 217 277 243
183 186 188 189 189 189 194 203 207 208 204 215 216 203 199 206 203 203 174 174 189 205 218 214 209 198 171 171 216 237 242 0
183 184 191 190 190 191 195 203 211 213 218 203 201 213 210 216 232 197 179 193 192 197 205 211 190 162 153 143 162 135 116 113
186 187 187 193 194 193 195 200 208 216 216 212 195 200 220 209 211 241 200 207 206 188 194 171 156 159 160 145 137 145 128 123
188 191 186 188 191 195 196 201 207 214 213 196 194 203 227 215 210 224 209 203 160 157 152 146 146 136 140 148 154 139 137 134
216 193 187 187 189 189 193 198 210 212 210 190 191 199 219 224 210 168 147 132 135 145 148 150 150 145 149 137 135 124 130 149
254 223 192 185 182 185 187 194 204 213 205 171 185 197 210 173 145 133 132 127 133 138 143 143 148 149 143 135 132 136 152 173
151 212 252 188 184 184 182 184 199 213 198 181 183 163 153 118 108 118 128 131 124 134 142 145 137 132 126 133 142 158 180 200
144 150 191 215 149 153 161 175 195 127 153 126 110 106 100 103 99 94 100 110 118 127 133 133 137 138 139 146 161 172 187 213
161 162 159 157 157 141 122 88 96 104 108 110 111 103 104 104 104 103 109 112 115 116 125 129 133 136 149 156 168 184 214 245
173 154 151 144 129 98 92 82 85 93 98 99 103 103 103 106 105 106 108 110 114 121 124 130 142 149 157 148 169 219 240 280
185 161 153 154 125 122 115 107 103 107 105 110 110 115 121 118 117 119 118 125 127 133 134 131 132 135 155 181 193 213 269 274
193 199 144 138 121 126 119 117 118 111 111 121 132 128 123 127 134 137 131 129 131 122 128 140 161 172 179 193 204 258 282 298
176 127 127 122 128 129 132 143 138 139 136 132 127 133 132 125 119 121 127 127 129 142 155 170 190 136 125 95 113 266 325 337